Preview of NWS' New Version of Forecast
This preview is not operational and should not be used for support decisions.

Regional Weather Roundup (RWR)

Issued by Philadelphia/Mt Holly (PHI)

                            
000
ASUS41 KPHI 171112
RWRPHI

REGIONAL WEATHER ROUNDUP
NATIONAL WEATHER SERVICE MOUNT HOLLY NJ
700 AM EDT TUE SEP 17 2019

NOTE:  "FAIR" INDICATES FEW OR NO CLOUDS BELOW 12,000 FEET WITH NO
SIGNIFICANT WEATHER AND/OR OBSTRUCTIONS TO VISIBILITY.

 * = STATION DOES NOT REPORT PRECIPITATION (E.G. RAIN, SNOW, ETC.) 
        OR FOG.

NJZ015>026-171200-
SOUTHERN NEW JERSEY
  
CITY           SKY/WX    TMP DP  RH WIND       PRES   REMARKS
POMONA         FAIR      66  57  72 NE9       30.08R                  
WILDWOOD*      FAIR      69  59  70 NE10      30.06R                  
MILLVILLE      FAIR     N/A N/A N/A NE8       30.08R                  
WRIGHTSTOWN    FAIR      61  55  78 NE8       30.10R                  
MOUNT HOLLY    MOCLDY    65  55  70 NE6       30.10R                  
TRENTON        FAIR      62  53  72 NE9       30.11R                  

$$
NJZ001>014-171200-
NORTHERN NEW JERSEY
  
CITY           SKY/WX    TMP DP  RH WIND       PRES   REMARKS
SUSSEX         FAIR      49  48  97 CALM      30.15R FOG              
ANDOVER*         N/A     54  53  97 VRB3      30.15R                  
MORRISTOWN     PTCLDY    54  54 100 CALM      30.14R                  
NEWARK         FAIR      60  52  74 N9        30.13R                  
TETERBORO      FAIR      59  52  77 N5        30.13R                  
CALDWELL       FAIR      58  54  86 CALM      30.15R                  
SOMERVILLE     MOCLDY    58  55  90 VRB5      30.12R                  
ALLAIRE*       FAIR      63  53  70 N6        30.13R                  
TOMS RIVER*    MOCLDY    62  32  32 NE6       30.11R                  

$$
PAZ043-044-047-054-055-060>062-066>071-171200-
EASTERN PENNSYLVANIA
  
CITY           SKY/WX    TMP DP  RH WIND       PRES   REMARKS
PHILADELPHIA   MOCLDY    68  51  54 NE10G20   30.10R                  
NORTH PHILA    MOCLDY    66  54  65 NE10      30.12R                  
BLUE BELL*     MOCLDY    64  60  86 NE7       30.12R                  
DOYLESTOWN     MOCLDY    63  53  70 NE9       30.12R                  
QUAKERTOWN*    PTCLDY    61  57  88 CALM      30.13                   
PERKASIE*      PTSUNNY   59  57  94 NE8       30.14R                  
POTTSTOWN      CLOUDY    61  59  93 NE7       30.14R                  
LANCASTER      MOCLDY    63  54  72 NE9       30.11R                  
COATESVILLE    CLOUDY    64  61  88 NE6       30.12R                  
WEST CHESTER   CLOUDY    64  61  88 NE3       30.11R                  
READING        NOT AVBL                                               
ALLENTOWN      FAIR      57  50  77 NE3       30.14R                  
QN CITY/ALNTWN FAIR      59  54  82 CALM      30.15R                  
MOUNT POCONO   FAIR      48  46  93 CALM      30.17R                  
HAZLETON       FAIR      46  45  93 CALM      30.19R                  
LEHIGHTON      FAIR      46  46 100 CALM      30.16R FOG              
WILKES BARRE   FAIR      51  48  89 E6        30.17R                  

$$
DEZALL-MDZ008-012-015-019-020-171200-
DELAWARE AND EASTERN MARYLAND
  
CITY           SKY/WX    TMP DP  RH WIND       PRES   REMARKS
WILMINGTON     CLOUDY    70  58  65 NE13      30.09R                  
DOVER          CLOUDY    69  62  77 NE14      30.06                   
CHESWOLD       CLOUDY    68  64  88 NE7       30.07R                  
GEORGETOWN     FAIR      69  65  86 E7        30.05R                  
EASTON         PTCLDY    70  70 100 NE5       30.08R                  
STEVENSVILLE   CLOUDY    70  70 100 E7        30.05R                  
ABERDEEN       CLOUDY    68  63  83 NE7       30.08                   
PATUXENT       MOCLDY    73  67  81 E14       30.01                   
OCEAN CITY     CLOUDY    72  63  73 NE9       30.04R                  
WALLOPS ISLAND MOCLDY    72  68  87 NW10      30.03R                  
CAMBRIDGE      MOCLDY    70  66  88 CALM      30.03R                  
SALISBURY      LGT RAIN  71  68  90 E5        30.03R FOG              

$$
PAZ001-021-NYZ056-072-MDZ011-DCZ001-171200-
OTHER NEARBY LOCATIONS
  
CITY           SKY/WX    TMP DP  RH WIND       PRES   REMARKS
HARRISBURG     MOCLDY    65  53  65 CALM      30.10R                  
STATE COLLEGE  PTCLDY    57  55  94 NE7       30.16R                  
WILLIAMSPORT   FAIR      53  51  93 CALM      30.16R                  
BINGHAMTON     FAIR      48  44  86 CALM      30.18R                  
NEW YORK CITY  FAIR      62  46  55 VRB6      30.16R                  
BALTIMORE      MOCLDY    71  64  78 NE12      30.06R                  
WASHINGTON DC  CLOUDY    73  68  84 NE14      30.04R                  

$$